SCP
0 0 0 0 0 0 0 0 0 0 0 0 0 0 0 0 0 0 0 0 0 0 0 0 0 0 0 0 0 0 0 0 0 0 0 0 0 0 0 0 0 0 0 0
0 0 -0 -0 0 0 0 0 0 0 0 0 0 0 0 0 0 0 0 0 0 0 0 0 0 0 0 0 0 0 0 0 0 0 0 0 0 0 0 0 0 0 0 0
0 0 -0 -0 -0 0 0 0 0 0 0 0 0 0 0 0 0 0 0 0 0 0 0 0 0 0 0 0 0 0 0 0 0 0 0 0 0 0 0 0 0 0 0 0
0 0 0 0 0 0 0 0 0 0 0 0 0 0 0 0 0 0 0 0 0 0 0 0 0 0 0 0 0 0 0 0 0 0 0 0 0 0 0 0 0 0 0 0
0 0 0 0 0 0 0 0 0 0 0 0 0 0 0 0 0 0 0 0 0 0 0 0 0 0 0 0 0 0 0 0 0 0 0 0 0 0 0 0 0 0 0 0
0 0 0 0 0 0 0 0 0 0 0 0 0 0 0 0 0 0 0 0 0 0 0 0 0 0 0 0 0 0 0 0 0 0 0 0 0 0 0 0 0 0 0 0
0 0 0 0 0 0 0 0 0 0 0 0 0 0 0 0 0 0 0 0 0 0 0 0 0 0 0 0 0 0 0 0 0 0 0 0 0 0 0 0 0 0 0 0
0 0 0 0 0 0 0 0 0 0 0 0 0 0 0 0 0 0 0 0 0 0 0 0 0 0 0 0 0 0 0 0 0 0 0 0 0 0 0 0 0 0 0 0
0 0 0 0 0 0 0 0 0 0 0 0 0 0 0 0 0 0 0 0 0 0 0 0 0 0 0 0 0 0 0 0 0 0 0 0 0 0 0 0 0 0 0 0
0 0 0 0 0 0 0 0 0 0 0 0 0 0 0 0 0 0 0 0 0 0 0 0 0 0 0 0 0 0 0 0 0 0 0 0 0 0 0 0 0 0 0 0
0 0 0 0 0 0 0 0 0 0 0 0 0 0 0 0 0 0 0 0 0 0 0 0 0 0 0 0 0 0 0 0 0 0 0 0 0 0 0 0 0 0 0 0
0 0 0 0 0 0 0 0 0 0 0 0 0 0 0 0 0 0 0 0 0 0 0 0 0 0 0 0 0 0 0 0 0 0 0 0 0 0 0 0 0 0 0 0
0 0 0 0 0 0 0 0 0 0 0 0 0 0 0 0 0 0 0 0 0 0 0 0 0 0 0 0 0 0 0 0 0 0 0 0 0 0 0 0 0 0 0 0
0 0 0 0 0 0 0 0 0 0 0 0 0 0 0 0 0 0 0 0 0 0 0 0 0 0 0 0 0 0 0 0 0 0 0 0 0 0 0 0 0 0 0 0
0 0 0 0 0 0 0 0 0 0 0 0 0 0 0 0 0 0 0 0 0 0 0 0 0 0 0 0 0 0 0 0 0 0 0 0 0 0 0 0 0 0 0 0
0 0 0 0 0 0 0 0 0 0 0 0 0 0 0 0 0 0 0 0 0 0 0 0 0 0 0 0 0 0 0 0 0 0 0 0 0 0 0 0 0 0 0 0
0 0 0 0 0 0 0 0 0 0 0 0 0 0 0 0 0 0 0 0 0 0 0 0 0 0 0 0 0 0 0 0 0 0 0 0 0 0 0 0 0 0 0 0
0 0 0 0 0 0 0 0 0 0 0 0 0 0 0 0 0 0 0 0 0 0 0 0 0 0 0 0 0 0 0 0 0 0 0 0 0 0 0 0 0 0 0 0
0 0 0 0 0 0 0 0 0 0 0 0 0 0 0 0 0 0 0 0 0 0 0 0 0 0 0 0 0 0 0 0 0 0 0 0 0 0 0 0 0 0 0 0
0 0 0 0 0 0 0 0 0 0 0 0 0 0 0 0 0 0 0 0 0 0 0 0 0 0 0 0 0 0 0 0 0 0 0 0 0 0 0 0 0 0 0 0
0 0 0 0 0 0 0 0 0 0 0 0 0 0 0 0 0 0 0 0 0 0 0 0 0 0 0 0 0 0 0 0 0 0 0 0 0 0 0 0 0 0 0 0
0 0 0 0 0 0 0 0 0 0 0 0 0 0 0 0 0 0 0 0 0 0 0 0 0 0 0 0 0 0 0 0 0 0 0 0 0 0 0 0 0 0 0 0
0 0 0 0 0 0 0 0 0 0 0 0 0 0 0 0 0 0 0 0 0 0 0 0 0 0 0 0 0 0 0 0 0 0 0 0 0 0 0 0 0 0 0 0
0 0 0 0 0 0 0 0 0 0 0 0 0 0 0 0 0 0 0 0 0 0 0 0 0 0 0 0 0 0 0 0 0 0 0 0 0 0 0 0 0 0 0 0
0 0 0 0 -0 0 0 0 0 0 0 0 0 0 0 0 0 0 0 0 0 0 0 0 0 0 0 0 0 0 0 0 0 0 0 0 0 0 0 0 0 0 0 0
0 0 0 0 0 0 0 0 0 0 0 0 0 0 0 0 0 0 0 0 0 0 0 0 0 0 0 0 0 0 0 0 0 0 0 0 0 0 0 0 0 0 0 0
0 0 0 0 0 0 0 0 0 0 0 0 0 0 0 0 0 0 0 0 0 0 0 0 0 0 0 0 0 0 0 0 0 0 0 0 0 0 0 0 0 0 0 0
Wind_Speed
8 7 6 9 10 8 9 9 10 10 11 12 9 8 7 6 5 4 4 4 4 4 3 2 2 2 2 2 2 3 3 3 2 2 1 1 1 1 2 2 2 2 2 2
7 7 7 11 12 11 11 10 10 11 15 10 8 6 6 6 5 5 5 5 4 3 3 3 3 2 2 2 2 2 2 2 1 1 1 1 1 1 1 1 1 2 3 3
6 4 5 10 10 11 9 8 8 11 11 5 5 7 7 6 5 6 6 5 4 4 4 4 3 3 3 3 2 2 2 1 1 1 1 1 1 1 1 1 1 2 3 3
4 2 10 8 2 5 6 7 6 6 7 6 7 8 7 5 5 6 5 4 4 3 3 2 2 2 2 2 2 2 2 1 1 1 1 1 1 1 1 1 1 2 2 3
3 5 9 7 3 2 4 6 2 4 7 7 7 5 5 3 2 4 4 4 3 3 2 1 1 2 3 2 2 2 1 1 1 1 1 1 1 1 1 0 0 1 1 2
3 5 7 4 5 4 2 5 3 4 7 6 4 4 6 4 4 4 3 2 1 0 1 1 1 2 3 2 2 1 1 1 1 1 1 1 1 1 0 0 0 1 1 1
6 7 7 4 5 2 2 6 7 5 5 4 4 6 6 5 4 3 2 2 1 2 1 1 1 2 3 2 1 1 1 1 1 1 1 1 1 1 1 1 1 1 1 2
4 5 8 3 2 2 5 6 6 6 5 4 6 6 4 4 3 3 3 3 2 2 2 1 2 2 2 1 0 1 2 2 1 1 1 1 2 2 2 2 2 2 2 2
6 6 4 2 3 5 4 5 6 6 6 4 4 4 4 3 2 3 2 3 2 2 2 2 2 2 2 0 1 2 3 2 2 2 2 2 2 2 2 1 1 1 1 1
6 7 7 6 5 5 5 6 6 5 5 3 3 3 3 3 3 3 3 2 2 3 3 2 2 2 1 1 2 3 3 2 2 2 2 3 2 1 1 0 0 0 1 1
7 8 7 6 6 6 6 6 5 5 4 3 2 2 2 2 2 2 2 2 2 2 2 2 3 3 3 2 2 3 3 2 2 2 2 2 2 1 1 0 1 1 1 1
8 6 6 9 7 6 6 7 6 5 5 4 2 2 1 1 1 1 1 2 2 2 3 3 3 3 3 2 2 3 2 2 1 1 2 1 2 3 4 2 3 3 3 3
7 7 7 9 8 6 6 6 5 4 4 4 2 1 0 0 1 1 2 2 2 2 3 3 3 3 3 3 2 2 2 1 1 1 1 1 1 2 3 4 4 4 4 4
6 5 6 6 7 7 6 5 4 4 3 2 2 1 1 2 2 3 2 2 2 3 3 3 3 3 3 3 3 3 2 2 2 1 1 1 1 1 1 2 3 3 4 5
6 5 6 6 5 6 5 3 3 3 3 3 2 2 3 3 2 2 2 3 3 4 3 3 3 3 3 3 3 3 2 1 1 1 1 1 1 1 1 2 2 3 3 4
8 7 5 5 6 5 5 4 3 3 3 2 2 2 2 2 3 3 3 3 3 3 3 3 3 3 3 3 3 2 2 3 2 1 1 1 1 1 1 2 2 2 3 3
6 6 6 6 5 5 4 4 3 2 2 2 2 2 3 4 4 4 4 4 4 3 3 3 3 3 3 3 2 2 2 2 3 2 1 1 1 1 1 2 2 2 3 4
4 4 4 4 3 4 4 4 3 3 2 2 3 4 4 4 3 3 3 3 4 4 4 3 3 3 3 3 2 1 1 1 1 1 1 1 1 1 1 2 2 3 3 4
5 5 5 5 4 3 3 3 3 3 3 3 3 3 3 3 3 3 3 3 3 3 3 3 5 4 3 3 3 1 1 1 2 2 2 2 2 2 2 2 2 3 3 3
7 6 6 6 5 4 3 3 3 3 3 3 3 3 3 3 3 3 3 3 2 2 2 3 3 3 3 3 4 1 1 1 1 2 2 2 2 2 2 3 3 3 3 3
6 6 7 6 6 5 5 4 4 4 4 3 3 3 2 3 3 2 2 2 3 3 3 4 3 2 2 3 4 1 1 2 2 2 2 2 3 3 3 3 3 3 3 3
6 6 6 6 6 5 5 5 4 4 4 4 4 3 3 3 3 3 2 1 2 5 4 2 2 4 5 5 2 1 2 2 2 2 2 2 3 3 3 3 3 4 4 4
5 5 6 6 5 5 5 5 5 4 4 4 4 3 3 2 2 2 2 2 3 5 4 2 4 7 7 4 2 2 2 2 2 3 3 3 3 3 3 4 3 4 4 4
5 5 5 5 5 5 6 5 5 4 4 3 3 3 2 2 2 1 2 5 7 7 4 5 7 7 6 2 2 2 2 3 3 3 3 3 3 3 3 4 4 4 4 5
5 5 5 5 5 4 4 4 4 4 4 3 4 4 3 2 1 2 3 3 6 6 4 5 8 7 4 2 3 3 3 3 3 3 3 3 3 3 3 4 4 4 4 4
4 4 4 4 3 3 3 3 3 3 3 4 3 3 3 2 2 2 2 3 4 6 4 3 4 5 3 3 3 3 3 4 4 3 3 3 4 4 4 4 5 4 4 4
4 4 3 3 4 4 3 3 3 4 3 3 4 3 3 3 3 3 3 3 3 3 3 3 3 3 3 3 3 4 3 3 3 3 3 3 3 4 4 5 4 4 4 4
Wind_Direction
261 270 264 263 260 246 233 231 234 250 256 271 277 276 277 277 277 271 273 268 248 239 236 233 228 230 212 201 190 176 167 170 183 180 170 166 191 219 220 215 221 209 199 203
277 265 257 265 256 246 246 244 247 262 269 267 272 278 273 267 260 260 262 261 247 239 233 229 221 219 202 194 182 163 167 178 175 167 164 169 195 201 217 219 222 209 205 201
269 284 299 265 239 227 232 226 215 241 257 283 287 280 267 257 253 255 259 259 247 237 233 230 221 203 195 188 165 147 148 158 160 160 168 200 200 158 216 221 210 219 220 210
260 278 245 250 245 216 230 250 236 255 280 285 276 282 274 252 249 263 265 258 251 244 243 243 218 184 167 154 151 148 147 160 163 159 175 183 171 190 210 210 210 226 230 221
215 241 267 289 301 256 237 269 269 274 296 312 320 316 291 267 258 259 261 258 246 232 222 220 189 159 139 129 133 138 148 173 176 166 167 175 197 216 206 144 326 281 244 221
213 237 251 270 309 292 223 265 304 295 294 308 331 307 287 313 306 298 306 302 282 171 115 127 165 139 132 129 125 153 183 193 171 162 162 179 212 201 105 90 2 348 337 315
226 244 261 284 311 10 182 275 314 296 285 289 263 258 286 307 307 317 332 347 43 92 94 100 106 119 122 122 143 190 121 97 73 71 88 93 74 62 70 64 53 34 5 352
210 232 255 310 33 203 260 298 309 302 294 290 289 292 300 313 325 352 4 18 47 81 70 44 73 108 109 120 136 88 86 79 66 60 61 61 69 47 54 67 60 35 24 4
212 235 277 288 268 279 300 302 301 299 299 297 300 302 315 330 342 359 13 21 38 85 79 49 50 91 109 29 71 85 82 71 61 54 54 61 76 72 60 61 63 22 12 349
264 271 287 289 289 300 299 293 294 298 300 301 294 308 328 339 349 2 10 22 36 66 71 46 36 49 62 44 71 85 81 68 61 61 49 49 51 55 73 89 59 354 328 319
269 285 307 296 291 296 303 308 311 314 310 306 306 310 319 323 334 357 17 30 47 70 73 48 41 42 36 48 78 83 75 65 57 59 62 47 37 22 351 300 241 260 269 265
267 279 278 286 298 299 298 302 303 308 315 318 300 280 313 322 329 1 49 55 54 58 63 52 50 41 29 40 79 92 77 63 59 57 57 53 42 20 11 354 345 334 315 305
276 293 285 288 299 301 293 294 299 299 295 302 305 267 226 339 8 58 63 66 67 67 66 61 57 43 24 28 64 86 84 59 58 53 47 36 30 23 1 4 8 2 355 344
309 312 304 305 304 311 310 308 315 320 320 319 331 24 59 59 63 67 60 57 68 72 68 65 61 42 19 30 53 62 61 39 37 49 34 21 11 353 341 339 343 348 350 349
323 316 298 310 327 334 336 342 351 352 357 7 27 50 66 69 61 52 52 61 67 63 57 57 54 28 17 35 48 51 47 36 31 29 15 8 358 349 344 340 335 329 336 345
317 323 328 334 337 344 353 357 356 349 357 15 38 46 58 74 70 59 54 59 67 56 43 44 37 17 19 35 39 38 36 17 13 19 14 6 1 353 341 339 337 333 332 330
332 333 331 328 328 333 338 347 355 1 14 26 32 50 66 71 67 58 52 51 57 50 37 35 24 17 25 29 33 29 23 14 9 12 14 358 345 332 323 325 323 321 320 324
310 308 313 313 316 326 340 357 9 13 21 32 48 59 64 66 61 52 53 55 53 41 28 24 23 23 25 18 22 23 19 10 4 355 347 343 330 319 318 317 315 314 316 325
347 347 348 352 353 353 354 357 0 6 20 44 57 60 62 62 56 49 51 52 45 25 6 9 12 21 16 8 8 16 11 1 350 340 333 328 333 329 321 312 308 308 310 315
2 7 10 8 9 11 6 5 14 23 27 46 57 58 54 47 46 46 47 44 21 345 342 354 3 2 355 350 356 1 352 341 332 325 322 318 314 312 310 310 309 308 307 305
0 4 8 10 12 14 17 19 28 25 22 37 48 44 37 27 32 39 40 15 356 354 355 353 356 343 336 339 348 350 338 328 321 313 310 307 303 302 303 306 308 308 307 306
1 5 5 9 15 13 12 18 26 27 29 32 35 36 34 24 23 26 25 349 339 344 350 347 340 336 337 342 348 338 325 315 310 304 297 293 293 295 296 298 298 300 299 297
1 4 4 6 8 6 10 17 21 25 25 23 20 18 16 6 1 3 347 349 344 340 342 335 330 333 337 349 346 332 318 307 301 297 292 290 288 286 287 289 290 293 294 295
0 2 0 360 7 15 12 7 10 12 13 9 10 9 5 1 359 356 328 332 340 339 339 330 333 335 339 344 329 318 309 303 297 294 293 293 291 290 288 288 288 289 288 289
357 357 360 0 4 0 353 354 0 5 6 6 3 1 359 354 331 326 330 330 333 336 331 332 336 337 337 321 313 303 295 288 288 291 290 295 294 290 287 286 285 285 285 285
353 351 348 347 343 341 344 349 352 349 349 349 347 345 343 342 333 326 323 323 322 327 327 321 322 326 318 308 303 300 296 300 306 302 294 293 292 290 288 288 286 283 282 282
349 347 344 348 351 351 347 345 342 337 338 334 327 331 336 333 329 326 321 318 318 318 314 313 313 310 308 305 303 303 302 301 297 295 294 291 288 287 286 284 283 283 283 284